STARLINK-31690, 59581

Orbit data source: Space-Track

STARLINK-31690, 59581 is a payload satellite owned by SpaceX/Seattle (US) in LEO that was launched on Tue, 23 Apr 2024 UTC via an FALCON 9 launch vehicle from the Air Force Eastern Test Range (AFETR). Payload-class satellites include a variety of spacecraft equipped with specific instruments for various scientific and technological missions. These include communications satellites like Starlink; space stations such as the ISS; scientific satellites like the Hubble; Earth observation satellites from companies like Planet Labs, Umbra, and HawkEye 360; GPS; miniature CubeSats for education and research; and military/defense satellites.

Loading next visibility...
Identifier
59581, 2024-076T
Orbit
LEO
Country
Flag of USUS
Related business
Manufacturer
SpaceX/Seattle
Mission
Operational Commercial Communications
Bus & Motor
STARLINK V2M, Unknown motor
Mass
730 kg wet, ~700 kg dry
Launch date (UTC)
2024-04-23 (2 years ago)
Launch vehicle
FALCON 9
Launch site
Air Force Eastern Test Range (AFETR)
Object type
Payload
Rocket body
Debris
Shape & HBR
Box + 2 Pan, 17.7 m
Radar Cross Section
33.884 m², Large (>1 m²)

Expand to show TLE details & history
Last TLE update: 18 hours ago

TLE from 18 hours ago
0 STARLINK-31690
1 59581U 24076T   26035.46651656 -.00000067  00000-0  70853-5 0  9994
2 59581  42.9976 196.4462 0000801 283.6057  76.4706 15.27577920101433
Epoch: 2026-02-04T11:11Z
TLE epoch observation values (Epoch: 2026-02-04T11:11:47.030Z)
Latitude
0.00001°
Longitude
-106.13243°
Altitude
482.702 km
Speed
7.626 km/s
True Right ascension
13h 05m 47s
True Declination
0° 00' 00"
Sunlit
Object was in full shadow at epoch
Visualization orbit readout
Latitude
Unknown
Longitude
Unknown
Altitude
Unknown
Speed
Unknown
Apparent Right ascension
Unknown
Apparent Declination
Unknown
Sunlit
N/A
Visualization observer readout
Local Sidereal Time
07:15:08
Azimuth
Unknown
Elevation
Unknown
Doppler factor
Unknown
Orbital elements
Apogee altitude
485.551 km
Perigee altitude
484.451 km
Semi-major axis
6,863.138 km
Eccentricity
0.00008
Inclination
42.9976°
RAAN
196.4462°
Arg. of periapsis
283.6057°
True anomaly
76.47952°
Mean anomaly
76.4706°
Eccentric anomaly
76.47506°
Mean motion
3.81732 °/min
Orbital period
94.31 mins
BSTAR
0.0000070853
Loading maneuver chart data...
Computing Atmospheric mass density...
Loading historical data...
Loading historical data...
Loading historical data...
Loading historical data...
Loading historical data...
Loading historical data...
Loading historical data...

Documentation

Showing up to 5 results
|